Regional Weather Roundup
Issued by NWS Albany, NY

Home | Current Version | Previous Version | Graphics & Text | Print | Product List | Glossary Off
Versions: 1 2 3 4 5 6 7 8 9 10 11 12 13 14 15 16 17 18 19 20 21 22 23 24 25 26 27 28

000
ASUS41 KALY 161310
RWRALY

NEW YORK STATE HOURLY WEATHER ROUNDUP
NATIONAL WEATHER SERVICE ALBANY NY
800 AM EST MON JAN 16 2017

NOTE: "FAIR" INDICATES FEW OR NO CLOUDS BELOW 12,000 FEET WITH NO
SIGNIFICANT WEATHER AND/OR NO OBSTRUCTIONS TO VISIBILITY.

NYZ032-033-038>043-046>054-057>066-NYZ062>081-082-084-161400-
EAST


CITY           SKY/WX    TMP DP  RH WIND       PRES   REMARKS
ALBANY         PTCLDY    15  11  83 CALM      30.44R
GLENS FALLS    CLOUDY    11   6  81 CALM      30.42R
POUGHKEEPSIE   CLEAR     14  12  92 CALM      30.45S
MONTGOMERY     CLEAR     17  13  84 SW5       30.42S WCI  10
WHITE PLAINS   PTCLDY    22  17  81 NW3       30.43S
ISLIP          PTCLDY    26  21  81 NW3       30.45R
NEW YORK CITY  PTCLDY    32  18  56 CALM      30.46S
CENTRAL PARK   CLEAR     31  18  58 N3        30.47S
$$

NYZ005>009-017-018-044>046-055-056-161400-
CENTRAL


CITY           SKY/WX    TMP DP  RH WIND       PRES   REMARKS
FULTON         CLEAR     17  15  92 CALM      30.37S FOG
SYRACUSE       PTCLDY    19  16  88 E3        30.38R
ROME           CLOUDY    20  16  84 E6        30.41R WCI  12
ELMIRA         CLOUDY    12   7  80 CALM      30.39S
BINGHAMTON     CLOUDY    19  15  84 SW8       30.33S WCI   9
MONTICELLO     CLOUDY    10   9  92 CALM      30.37F
$$

NYZ026>034-041>043-087-161400-
NORTH


CITY           SKY/WX    TMP DP  RH WIND       PRES   REMARKS
WATERTOWN      CLOUDY    26  20  77 S9G18     30.35S WCI  17
FORT DRUM      NOT AVBL
OGDENSBURG     FAIR      27  23  84 MISG      30.30F
MASSENA        PTCLDY    26  20  77 SW12      30.30F WCI  16
SARANAC LAKE   CLOUDY    20  15  81 MISG      30.24F
PLATTSBURGH    MOCLDY    15   9  76 S5        30.33F WCI   8
$$

NYZ001>004-010>016-019>021-085-161400-
WEST


CITY           SKY/WX    TMP DP  RH WIND       PRES   REMARKS
NIAGARA FALLS  CLOUDY    25  21  85 S6        30.35S WCI  18
BUFFALO        CLOUDY    22  16  78 S5        30.35S WCI  16
DUNKIRK        CLOUDY    25  19  78 S7        30.37R WCI  17
JAMESTOWN      CLOUDY    18  16  93 S5        30.30S WCI  11
WELLSVILLE     CLOUDY    25  16  68 SW6       30.31S WCI  18
ROCHESTER      CLOUDY    21  17  84 SW5       30.37S WCI  15
PENN YAN       CLOUDY    22  16  78 SW9       30.36S WCI  12
$$

             KEY
       WCI = WIND CHILL INDEX
       VSB = VISIBILITY
       HX  = HEAT INDEX
$$




USA.gov is the U.S. government's official web portal to all federal, state and local government web resources and services.